OYDDA EGSU-EGKA

Flight info

Callsign OYDDA
Flight time 1h 22m
Altitude 4000
Route DCT
Aircraft DC3/M-SDF/S

Departure

Time 2026-05-04 08:04
Airport Duxford Aerodrome (EGSU)

Arrival

Time 2026-05-04 09:26
Airport Brighton City Airport (EGKA)
Time Latitude Longitude Altitude Speed Heading
2026-05-04 07:29 52.09472 0.13374 123 ft 0 kts 135°
2026-05-04 07:52 52.09471 0.13375 122 ft 3 kts 135°
2026-05-04 07:53 52.09445 0.13469 123 ft 14 kts 78°
2026-05-04 07:54 52.09456 0.13796 123 ft 0 kts 132°
2026-05-04 08:02 52.09346 0.13914 121 ft 0 kts 236°
2026-05-04 08:03 52.09345 0.13911 122 ft 3 kts 236°
2026-05-04 08:03 52.09239 0.13625 119 ft 55 kts 242°
2026-05-04 08:03 52.09017 0.13183 149 ft 75 kts 233°
2026-05-04 08:03 52.08703 0.12417 245 ft 86 kts 242°
2026-05-04 08:04 52.08382 0.11530 388 ft 97 kts 244°
2026-05-04 08:04 52.08026 0.10473 519 ft 113 kts 245°
2026-05-04 08:04 52.07649 0.09292 628 ft 125 kts 247°
2026-05-04 08:04 52.07258 0.08025 869 ft 120 kts 246°
2026-05-04 08:05 52.06868 0.06864 1100 ft 119 kts 243°
2026-05-04 08:05 52.06425 0.05617 1286 ft 128 kts 243°
2026-05-04 08:05 52.05986 0.04370 1598 ft 127 kts 243°
2026-05-04 08:05 52.05399 0.03363 1911 ft 126 kts 206°
2026-05-04 08:06 52.04512 0.03308 2041 ft 136 kts 160°
2026-05-04 08:06 52.03589 0.04060 1931 ft 158 kts 149°
2026-05-04 08:06 52.02645 0.04944 1972 ft 159 kts 148°
2026-05-04 08:06 52.01703 0.05812 1983 ft 157 kts 149°
2026-05-04 08:08 51.96016 0.14321 1999 ft 168 kts 116°
2026-05-04 08:08 51.95479 0.15989 1992 ft 167 kts 115°
2026-05-04 08:10 51.91094 0.28382 2048 ft 168 kts 156°
2026-05-04 08:11 51.89980 0.28800 2043 ft 165 kts 170°
2026-05-04 08:11 51.87644 0.28873 1447 ft 172 kts 192°
2026-05-04 08:11 51.86684 0.28028 1192 ft 145 kts 231°
2026-05-04 08:12 51.86180 0.26842 1180 ft 116 kts 240°
2026-05-04 08:12 51.85798 0.25790 1195 ft 102 kts 243°
2026-05-04 08:12 51.85430 0.24767 1068 ft 104 kts 244°
2026-05-04 08:12 51.85001 0.23901 1031 ft 97 kts 226°
2026-05-04 08:13 51.84505 0.23144 917 ft 99 kts 226°
2026-05-04 08:13 51.84133 0.22268 863 ft 89 kts 266°
2026-05-04 08:13 51.84289 0.21388 798 ft 80 kts 310°
2026-05-04 08:13 51.84621 0.20689 787 ft 77 kts 313°
2026-05-04 08:14 51.84944 0.20042 963 ft 73 kts 314°
2026-05-04 08:14 51.85314 0.19469 1099 ft 78 kts 341°
2026-05-04 08:14 51.85869 0.19519 1120 ft 84 kts 26°
2026-05-04 08:16 51.88393 0.23318 335 ft 44 kts 40°
2026-05-04 08:16 51.88530 0.23534 337 ft 11 kts 88°
2026-05-04 08:16 51.88491 0.23561 338 ft 6 kts 202°
2026-05-04 08:17 51.88447 0.23543 338 ft 8 kts 193°
2026-05-04 08:17 51.88376 0.23517 339 ft 13 kts 194°
2026-05-04 08:17 51.88290 0.23486 339 ft 6 kts 188°
2026-05-04 08:17 51.88236 0.23513 337 ft 9 kts 177°
2026-05-04 08:19 51.87816 0.22899 336 ft 13 kts 280°
2026-05-04 08:19 51.87872 0.22786 336 ft 13 kts 314°
2026-05-04 08:20 51.87940 0.22670 335 ft 12 kts 347°
2026-05-04 08:20 51.87979 0.22693 333 ft 0 kts 45°
2026-05-04 08:24 51.89757 0.25333 1070 ft 103 kts 25°
2026-05-04 08:24 51.90470 0.25198 1246 ft 115 kts 329°
2026-05-04 08:24 51.91099 0.24301 1427 ft 128 kts 317°
2026-05-04 08:24 51.91501 0.22988 1506 ft 144 kts 276°
2026-05-04 08:25 51.91153 0.21424 1553 ft 158 kts 232°
2026-05-04 08:25 51.90292 0.20294 1746 ft 159 kts 215°
2026-05-04 08:25 51.89352 0.19293 1854 ft 166 kts 212°
2026-05-04 08:25 51.88333 0.18281 1887 ft 174 kts 212°
2026-05-04 08:26 51.87323 0.17293 1793 ft 165 kts 212°
2026-05-04 08:27 51.86118 0.19902 798 ft 80 kts 40°
2026-05-04 08:28 51.86526 0.20518 689 ft 80 kts 41°
2026-05-04 08:28 51.86925 0.21133 623 ft 79 kts 40°
2026-05-04 08:28 51.87315 0.21712 483 ft 74 kts 41°
2026-05-04 08:28 51.87692 0.22274 389 ft 72 kts 40°
2026-05-04 08:29 51.88049 0.22807 334 ft 65 kts 40°
2026-05-04 08:29 51.88351 0.23261 362 ft 63 kts 41°
2026-05-04 08:29 51.88721 0.23800 479 ft 80 kts 40°
2026-05-04 08:31 51.92720 0.22283 1054 ft 170 kts 260°
2026-05-04 08:33 51.86759 0.14508 1212 ft 159 kts 225°
2026-05-04 08:33 51.85959 0.13460 1137 ft 133 kts 205°
2026-05-04 08:35 51.84732 0.17875 1072 ft 76 kts 32°
2026-05-04 08:35 51.85272 0.18603 1078 ft 79 kts 41°
2026-05-04 08:35 51.85660 0.19227 1008 ft 77 kts 41°
2026-05-04 08:35 51.86066 0.19801 915 ft 81 kts 40°
2026-05-04 08:37 51.88191 0.23025 360 ft 67 kts 41°
2026-05-04 08:37 51.88589 0.23608 453 ft 87 kts 39°
2026-05-04 08:37 51.89067 0.24330 618 ft 102 kts 42°
2026-05-04 08:38 51.89708 0.24621 910 ft 103 kts 342°
2026-05-04 08:38 51.90263 0.23790 1039 ft 117 kts 313°
2026-05-04 08:38 51.90833 0.22763 1019 ft 128 kts 315°
2026-05-04 08:40 51.86940 0.15872 1015 ft 110 kts 156°
2026-05-04 08:40 51.86364 0.16598 852 ft 97 kts 132°
2026-05-04 08:40 51.85925 0.17326 905 ft 86 kts 127°
2026-05-04 08:41 51.85629 0.18104 897 ft 79 kts 88°
2026-05-04 08:41 51.85726 0.18928 883 ft 73 kts 71°
2026-05-04 08:41 51.85931 0.19664 887 ft 73 kts 48°
2026-05-04 08:41 51.86325 0.20219 768 ft 77 kts 40°
2026-05-04 08:42 51.86732 0.20825 687 ft 79 kts 40°
2026-05-04 08:42 51.87127 0.21418 536 ft 77 kts 41°
2026-05-04 08:42 51.87524 0.22020 429 ft 77 kts 41°
2026-05-04 08:42 51.87906 0.22589 352 ft 71 kts 41°
2026-05-04 08:43 51.88235 0.23079 353 ft 64 kts 40°
2026-05-04 08:43 51.88600 0.23624 481 ft 79 kts 40°
2026-05-04 08:43 51.89022 0.24268 720 ft 87 kts 41°
2026-05-04 08:43 51.89457 0.24957 1004 ft 90 kts 49°
2026-05-04 08:44 51.89556 0.25908 1263 ft 97 kts 99°
2026-05-04 08:44 51.89186 0.26821 1540 ft 99 kts 139°
2026-05-04 08:46 51.82830 0.27280 1995 ft 158 kts 192°
2026-05-04 08:46 51.81764 0.26899 2090 ft 154 kts 192°
2026-05-04 08:46 51.80741 0.26532 2199 ft 150 kts 192°
2026-05-04 08:46 51.79725 0.26174 2294 ft 147 kts 193°
2026-05-04 08:47 51.78730 0.25821 2397 ft 145 kts 192°
2026-05-04 08:47 51.77749 0.25476 2496 ft 143 kts 192°
2026-05-04 08:47 51.76779 0.25159 2597 ft 142 kts 187°
2026-05-04 08:47 51.75871 0.25550 2679 ft 133 kts 145°
2026-05-04 08:48 51.75138 0.26399 2805 ft 132 kts 142°
2026-05-04 08:48 51.74408 0.27286 2900 ft 131 kts 141°
2026-05-04 08:48 51.73683 0.28192 3011 ft 131 kts 141°
2026-05-04 08:48 51.72961 0.29098 3123 ft 131 kts 141°
2026-05-04 08:49 51.72240 0.30006 3221 ft 132 kts 141°
2026-05-04 08:50 51.68008 0.35306 3819 ft 125 kts 141°
2026-05-04 08:50 51.67323 0.36167 3908 ft 124 kts 141°
2026-05-04 08:51 51.66643 0.37021 3963 ft 127 kts 141°
2026-05-04 08:51 51.65932 0.37911 3985 ft 132 kts 142°
2026-05-04 08:51 51.65191 0.38835 3995 ft 138 kts 142°
2026-05-04 08:51 51.64418 0.39796 4003 ft 142 kts 142°
2026-05-04 08:52 51.63623 0.40782 4003 ft 145 kts 142°
2026-05-04 08:52 51.62825 0.41764 4000 ft 144 kts 142°
2026-05-04 08:52 51.62031 0.42737 3996 ft 143 kts 142°
2026-05-04 08:52 51.61242 0.43702 3995 ft 141 kts 142°
2026-05-04 08:53 51.60461 0.44676 3999 ft 144 kts 142°
2026-05-04 08:54 51.57811 0.55285 4000 ft 156 kts 102°
2026-05-04 08:55 51.57578 0.57010 3936 ft 161 kts 102°
2026-05-04 08:55 51.57335 0.58787 3840 ft 165 kts 102°
2026-05-04 08:55 51.57082 0.60608 3745 ft 168 kts 102°
2026-05-04 08:55 51.56823 0.62454 3645 ft 170 kts 102°
2026-05-04 08:57 51.52011 0.70040 2919 ft 177 kts 193°
2026-05-04 09:01 51.35439 0.63198 1521 ft 171 kts 195°
2026-05-04 09:01 51.34302 0.62692 1500 ft 168 kts 195°
2026-05-04 09:01 51.33184 0.62213 1475 ft 165 kts 194°
2026-05-04 09:01 51.32082 0.61757 1487 ft 163 kts 194°
2026-05-04 09:02 51.30988 0.61315 1486 ft 162 kts 194°
2026-05-04 09:02 51.29903 0.60884 1478 ft 160 kts 194°
2026-05-04 09:02 51.28822 0.60448 1481 ft 160 kts 194°
2026-05-04 09:02 51.27746 0.60008 1475 ft 159 kts 193°
2026-05-04 09:03 51.26681 0.59569 1483 ft 158 kts 194°
2026-05-04 09:03 51.25623 0.59127 1476 ft 157 kts 194°
2026-05-04 09:03 51.24572 0.58694 1471 ft 157 kts 194°
2026-05-04 09:03 51.23510 0.58259 1482 ft 158 kts 194°
2026-05-04 09:04 51.22440 0.57825 1476 ft 159 kts 194°
2026-05-04 09:04 51.21367 0.57397 1475 ft 159 kts 193°
2026-05-04 09:04 51.20275 0.57141 1472 ft 159 kts 186°
2026-05-04 09:04 51.19177 0.56967 1467 ft 158 kts 185°
2026-05-04 09:05 51.18088 0.56813 1469 ft 156 kts 184°
2026-05-04 09:05 51.17009 0.56667 1473 ft 155 kts 184°
2026-05-04 09:05 51.15932 0.56531 1476 ft 155 kts 184°
2026-05-04 09:05 51.14855 0.56389 1474 ft 155 kts 184°
2026-05-04 09:06 51.13799 0.56089 1469 ft 156 kts 204°
2026-05-04 09:07 51.10136 0.45612 1480 ft 157 kts 245°
2026-05-04 09:08 51.09659 0.44055 1471 ft 157 kts 245°
2026-05-04 09:08 51.09176 0.42499 1474 ft 157 kts 245°
2026-05-04 09:08 51.08725 0.41026 1464 ft 157 kts 245°
2026-05-04 09:08 51.08254 0.39471 1468 ft 156 kts 246°
2026-05-04 09:09 51.07785 0.37924 1471 ft 155 kts 245°
2026-05-04 09:09 51.07634 0.37428 1459 ft 154 kts 245°
2026-05-04 09:09 51.07463 0.36874 1466 ft 153 kts 245°
2026-05-04 09:09 51.07015 0.35392 1477 ft 153 kts 245°
2026-05-04 09:10 51.06548 0.33861 1498 ft 155 kts 245°
2026-05-04 09:10 51.06223 0.32805 1499 ft 157 kts 245°
2026-05-04 09:10 51.05742 0.31220 1492 ft 160 kts 246°
2026-05-04 09:10 51.05495 0.30415 1483 ft 160 kts 245°
2026-05-04 09:11 51.05154 0.29288 1487 ft 161 kts 245°
2026-05-04 09:14 51.02016 0.18873 1065 ft 168 kts 245°
2026-05-04 09:14 51.01518 0.17212 1013 ft 165 kts 245°
2026-05-04 09:14 51.01034 0.15577 997 ft 161 kts 246°
2026-05-04 09:14 51.00565 0.13971 995 ft 160 kts 246°
2026-05-04 09:15 51.00094 0.12380 1003 ft 159 kts 246°
2026-05-04 09:15 50.99618 0.10794 990 ft 158 kts 246°
2026-05-04 09:15 50.99145 0.09222 990 ft 157 kts 245°
2026-05-04 09:15 50.98666 0.07666 987 ft 156 kts 245°
2026-05-04 09:17 50.94981 -0.04663 986 ft 155 kts 246°
2026-05-04 09:18 50.94527 -0.06207 989 ft 154 kts 246°
2026-05-04 09:18 50.94075 -0.07740 1001 ft 154 kts 246°
2026-05-04 09:18 50.93627 -0.09277 1004 ft 153 kts 246°
2026-05-04 09:18 50.93181 -0.10820 1002 ft 155 kts 246°
2026-05-04 09:19 50.92727 -0.12370 995 ft 155 kts 246°
2026-05-04 09:19 50.92282 -0.13922 999 ft 155 kts 246°
2026-05-04 09:19 50.91839 -0.15457 993 ft 155 kts 246°
2026-05-04 09:19 50.91389 -0.17009 997 ft 154 kts 246°
2026-05-04 09:20 50.90944 -0.18558 999 ft 154 kts 246°
2026-05-04 09:20 50.90648 -0.19582 1004 ft 154 kts 246°
2026-05-04 09:20 50.90211 -0.21138 1005 ft 155 kts 246°
2026-05-04 09:20 50.89772 -0.22696 1000 ft 155 kts 246°
2026-05-04 09:21 50.89376 -0.24099 1001 ft 156 kts 246°
2026-05-04 09:21 50.88924 -0.25682 999 ft 158 kts 245°
2026-05-04 09:21 50.88474 -0.27252 996 ft 156 kts 246°
2026-05-04 09:21 50.87931 -0.28722 1009 ft 154 kts 234°
2026-05-04 09:22 50.87226 -0.30016 790 ft 152 kts 226°
2026-05-04 09:22 50.86459 -0.31004 767 ft 142 kts 209°
2026-05-04 09:22 50.85628 -0.31729 771 ft 133 kts 210°
2026-05-04 09:22 50.84811 -0.32419 678 ft 131 kts 199°
2026-05-04 09:23 50.84042 -0.32160 588 ft 114 kts 130°
2026-05-04 09:23 50.83596 -0.31169 274 ft 100 kts 110°
2026-05-04 09:23 50.83551 -0.30228 337 ft 78 kts 87°
2026-05-04 09:23 50.83728 -0.29473 435 ft 62 kts 64°
2026-05-04 09:25 50.85832 -0.27361 828 ft 81 kts 273°
2026-05-04 09:25 50.85543 -0.28137 683 ft 90 kts 227°
2026-05-04 09:26 50.85037 -0.28812 382 ft 98 kts 211°
2026-05-04 09:26 50.84413 -0.29173 232 ft 90 kts 206°
2026-05-04 09:26 50.83858 -0.29539 23 ft 81 kts 205°
2026-05-04 09:26 50.83430 -0.29806 17 ft 48 kts 201°
2026-05-04 09:27 50.83289 -0.29897 17 ft 7 kts 201°
2026-05-04 09:27 50.83242 -0.29900 17 ft 7 kts 116°
2026-05-04 09:27 50.83258 -0.29816 15 ft 12 kts 63°
2026-05-04 09:27 50.83305 -0.29669 14 ft 17 kts 63°
2026-05-04 09:28 50.83356 -0.29509 15 ft 14 kts 63°
2026-05-04 09:28 50.83408 -0.29347 16 ft 18 kts 62°
2026-05-04 09:28 50.83443 -0.29204 18 ft 10 kts 75°
2026-05-04 09:28 50.83463 -0.29084 16 ft 7 kts 85°
2026-05-04 09:29 50.83422 -0.29054 15 ft 9 kts 197°
2026-05-04 09:29 50.83401 -0.29086 16 ft 0 kts
2026-05-04 09:29 50.83408 -0.29080 16 ft 0 kts 75°